User: anonymous   Login
Location: Anuling
(14.1239°N, 120.8922°E)
Time: 11:31:22
(UTC+00:00)
Language:

ARIANE 6 FM1 Upper Stage - Orbit

View from above orbital plane
View from above orbital plane
View from above satellite
View from above satellite

Ground track
Ground track

The orbit is defined by the following mean orbital elements,

1 60235U          26071.17328442 +.00000000 +00000-0 +28747-3 0 00007
2 60235  61.9933 208.5724 0060261 113.1780 247.5674 15.00664867    01
Epoch (UTC): 12 March 2026 04:09:31
Eccentricity: 0.0060261
inclination: 61.9933°
perigee height: 523 km
apogee height: 607 km
right ascension of ascending node: 208.5724°
argument of perigee: 113.1780°
revolutions per day: 15.00664867
mean anomaly at epoch: 247.5674°

The dashed part of the orbit path shows where the satellite is in the earth's shadow,  

DLR